Погода в Апуке

Погода в Апуке : погода сейчас, прогноз погоды и архив. Всё, что Вы хотите узнать о погоде в Апуке!

Хотите узнать прогноз погоды в Апуке? Тогда Вам сюда: Погода в Апуке

Поиск расширенной информации на нашем сайте:

Другие новости

Новости СМИ2

Главная страница сайта

Новости сайта

03.07.2017

Напоминаем, что на нашем специализированном сайте Метеоцентр.Азия вы можете получить высокодетализированные автоматические прогнозы погоды по пунктам России, СНГ и мира в авиационном формате (включающие направление и скорость ветра, видимость, явления погоды, количество и форму облачности, нижнюю и верхнюю границу облачности).


Погода в Апуке - сегодня

Время (UTC), дата Ветер
(°,м/с) 
Видим.   Явления Облачность Т
(°С)
Тd
(°С)
f(%) Тe
(°С)
Pmin
(гПа)
dP
(гПа)
Po
(мм)
O2
(г/м3)
Тmin Tmax R s Состояние
почвы
21 20.11.17 230 (ЮЗ) 10 км  {ливн. осадки}  10/10 600 м 
[Sc]
+3 +2 93 -1  989.1  -1.5  741  295  +2       
00 21.11.17 290 (З) 13-17{19}  20000 м  {ливн. осадки}  9/9 600 м 
[Sc]
+0.3 -3 78 -5  996.5  7.4  747  301           
03 21.11.17 270 (З) 15-18{21}  20000 м    4/4 600 м 
[Sc]
-0.3 -5.9 66 -6  1002  5.5  751  304           
06 21.11.17 280 (З) 14-14{20}  20000 м    9/9 600 м 
[Sc]
-0.3 -8.5 54 -6  1006  754  305           
09 21.11.17 270 (З) 12-15{17}  20000 м    10/10 600 м 
[Sc]
-0.1 -9.1 51 -6  1007.6  1.6  755  305    +3.2  0.4     
12 21.11.17 260 (З) 10-12{15}  20000 м    10/10 600 м 
[Sc]
+0.5 -6 62 -4  1009.7  2.1  757  305           
15 21.11.17 250 (З) 6{12}  20000 м    10/10 600 м 
[Sc]
+0.7 -5 66 -3  1012.9  3.2  759  306           
18 21.11.17 070 (В) 20000 м    9/9 600 м 
[Sc]
-3.1 -5.9 81 -6  1007.9  -5.6  755  309           
21 21.11.17 090 (В) 4000 м  слаб. ливневой снег  10/10 600 м кучево-дожд. 
[Cb cap]
-2.9 -4.9 86 -6  1005.7  -2.2  754  308  -3.7    0.9  неравномерный
сухой снег
100% 
00 22.11.17 070 (В) 8{12}  4000 м  слаб. ливневой снег  10/10 600 м кучево-дожд. 
[Cb cap]
-1.2 -3.1 87 -6  1003.9  -1.8  752  305           
03 22.11.17 070 (В) 20000 м  {ливн. осадки}  10/10 600 м 
[Sc]
-0.2 -3.3 80 -3  1000.9  -3  750  303           
06 22.11.17 070 (В) 4000 м  слаб. ливневой снег  10/10 600 м кучево-дожд. 
[Cb cap]
-0.4 -2.2 88 -3  999.4  -1.5  749  303           
09 22.11.17 070 (В) 20000 м    10/10 600 м 
[Sc]
-1.9 -4.2 84 -5  998.3  -1.1  748  304    -0.2     
12 22.11.17 090 (В) 8{12}  20000 м  {ливн. осадки}  10/10 600 м 
[Sc]
+2.4 -5.4 56 -1  998.1  -0.2  748  299           
15 22.11.17 070 (В) 20000 м    10/10 600 м 
[Sc]
-3 -6.5 77 -7  1002.3  4.2  751  307           
18 22.11.17 070 (В) 20000 м    10/10 600 м 
[Sc]
-3.6 -7.8 73 -7  1005.5  3.2  754  309           
21 22.11.17 330 (СЗ) 20000 м    ясно 
-4.6 -12.2 55 -8  1011.1  4.6  757  311  -5.8      неравномерный
сухой снег
100% 
00 23.11.17 320 (СЗ) 20000 м    ясно 
-6.1 -11 68 -11  1010.4  0.3  757  313           
03 23.11.17 310 (СЗ) 20000 м    4/4 600 м 
[Sc]
-4 -9.4 66 -7  1015.6  5.2  761  312           
06 23.11.17 330 (СЗ) 20000 м    3/3 600 м 
[Sc]
-4.3 -9.4 68 -6  1018.7  3.1  764  314           
09 23.11.17 060 (СВ) 20000 м    ясно 
-9.6 -15.4 63 -13  1020.7  765  321    -4       
12 23.11.17 060 (СВ) 20000 м    3/3 600 м 
[Sc]
-6.4 -10 76 -10  1021  0.3  765  317           
15 23.11.17 070 (В) 11-14{14}  20000 м    9/9 600 м 
[Sc]
-5.9 -9.8 74 -13  1019.4  -1.6  764  316           
18 23.11.17 080 (В) 11{16}  20000 м    10/10 420 м 
[Sc]
-5.4 -8 82 -12  1018.5  -0.9  763  315           
21 23.11.17 080 (В) 8-12{13}  4000 м  слаб. ливневой снег  10/10 600 м кучево-дожд. 
[Cb cap]
-4.8 -5.8 93 -10  1016.7  -1.9  762  313      0.8  неравномерный
сухой снег
100% 
Время (UTC), дата Ветер
(°,м/с) 
Видим.   Явления Облачность Т
(°С)
Тd
(°С)
f(%) Тe
(°С)
Pmin
(гПа)
dP
(гПа)
Po
(мм)
O2
(г/м3)
Тmin Tmax R s Состояние
почвы

Для получения пояснительной информации подведите курсор к названию столбца.

ПОГОДА в Апуке - архив

Всё, что Вы хотите узнать о погоде в Апуке - удобно и подробно!

Выберите нужную дату (начиная с 1 января 2015* года) и нажмите кнопку "Найти".
Будут отображены архивные сводки погоды по пункту Апука, начиная с указанной даты.


Отображать данные в формате CSV (для использования в таблицах Excel)


Внимание! Наш архив погоды предназначен исключительно для личного некоммерческого использования в познавательных целях. Если Вам необходимы официальные справки о состоянии погоды (для производственных, юридических, коммерческих и т.п. целей), обращайтесь в органы Росгидромета.

*Примечание: данная дата относится к архиву по метеостанциям СССР (Россия, СНГ, Балтия).
Архив по метеостанциям Зарубежной Европы и Азии (кроме Китая) хранится 10 дней, по другим регионам земного шара (Китай, Африка, Америка, Австралия, Океания) - 1 день.

Апука - район местоположения метеостанции


Название, широта, долгота, высота метеостанции:
Апука 60.4°ш. 169.7°д. 5 м над ур. моря [Российская Федерация]

Дополнительная информация

В oтличие oт бoльшинства пoгoдных сайтoв мы публикуем пoдрoбную метеoинфoрмацию в детальнoм прoфессиoнальнoм фoрмате.

Характеристики температуры и влажнoсти вoздуха измеряются на высoте 2 м в тени вдали oт зданий и деревьев.
Скoрoсть ветра измеряется на высoте 10 м (на урoвне рoста челoвека скoрoсть ветра ниже в 1.5-2 раза). Если метеoстанция нахoдится в гoрoде или в лесу, тo скoрoсть ветра занижена на 2-4 м/с пo сравнению с oткрытым местoм. Скoрoсть ветра над акватoриями крупных рек и oзёр, а также на вершинах хoлмoв на 2-5 м/с выше, чем в oбычных услoвиях.
Атмoсфернoе давление в разных тoчках местнoсти мoжет значительнo oтличаться oт давления на метеoстанции, в зависимoсти oт услoвий рельефа (при пoдъёме на 10 м давление пoнижается примернo на 1 мм рт.ст.).